Starlink 31306

operational
NORAD ID: 58876 Int'l Des: 2024-020 Owner: SPXS Country: US Constellation: starlink
LEOCIRCULAR

Starlink 31306について

説明を読み込み中...

リアルタイム位置

3D地球を読み込み中...

次回通過

高度履歴

Altitude vs Time

uPlot chart will show altitude changes over time

軌道要素

1 58876U 24020A 25352.23655648 -.00000272 00000-0 29540-5 0 9995
2 58876 53.1620 340.5228 0001522 99.0740 261.0433 15.30193202106783
Epoch: Dec 18, 2025 • Age: 20 hours

現在のステータス

高度 494.4 km
速度 7.62 km/s
衛星直下点 -52.34°S, 119.25°E
打ち上げ日 Jan 29, 2024
運用期間 1.8 years
タイプ internet

技術仕様

分類 Payload
質量 730.00 kg
乾燥質量 700.00 kg
総質量 730.00 kg
長さ 0.30 m
直径 4.10 m
スパン 29.00 m
形状 Box + pan
製造者 SPXS
バスタイプ Starlink V2M
フェーズステータス In Orbit
所有者/国 SPXS/US

大規模コンステレーション

Loading constellations...